Location: Monteux
(44.0348°N, 4.9972°E)
Time: 17:40:55
(UTC+00:00)

FengYun 1-2 T - Pass Details

Date: 30 November 2020
Orbit: 847 x 881 km, 98.7° (Epoch: 17 January)

Event Time Altitude Azimuth Distance (km) Brightness Sun altitude
Rises 16:56:18 0° 152° (SSE) 3,425 7.3 -9.4°
Reaches altitude 10° 16:58:42 10° 148° (SSE) 2,487 6.5 -9.8°
Maximum altitude 17:04:06 58° 71° (ENE) 991 4.3 -10.7°
Drops below altitude 10° 17:09:30 10° 354° (N) 2,486 6.5 -11.6°
Sets 17:11:54 0° 350° (N) 3,423 7.3 -12.0°
